Location: Santa Barbara
(34.4500°N, 119.7700°W)
Time: 04:54:25
(UTC-08:00)

Cosmos 1892 Rocket - Visible Passes

Search period start: 13 February 2016 00:00
Search period end: 23 February 2016 00:00
Orbit: 607 x 633 km, 82.5° (Epoch: 12 February)

Date Brightness Start Highest point End Pass type
(mag) Time Alt. Az. Time Alt. Az. Time Alt. Az.
17 Feb 5.4 19:15:51 10° NNE 19:17:10 18° NNE 19:17:10 18° NNE visible
18 Feb 4.2 19:33:17 10° N 19:36:16 41° N 19:36:16 41° N visible
19 Feb 5.5 18:16:56 10° ENE 18:17:10 10° ENE 18:17:23 10° ENE visible
19 Feb 4.2 19:51:04 10° NNW 19:55:24 55° W 19:55:56 51° WSW visible
20 Feb 4.8 18:31:55 10° NNE 18:35:10 20° ENE 18:38:23 10° ESE visible
20 Feb 5.6 20:09:17 10° NNW 20:13:00 27° W 20:16:41 10° SSW visible
21 Feb 4.0 18:48:55 10° N 18:53:03 38° E 18:57:07 10° SSE visible
21 Feb 6.6 20:28:18 10° NW 20:30:31 14° W 20:32:44 10° WSW visible
22 Feb 3.4 19:06:25 10° N 19:10:50 80° E 19:15:11 10° S visible
